Port Hope, MI

7:31 AM EDT on May 30, 2017 (GMT -0400)
Port Hope

Weather History for KP58 - February, 2013

Change the Weather History Date:

Wednesday, February 6, 2013

  Actual Average Record
Temperature  
Mean Temperature 22 °F -  
Max Temperature 25 °F 29 °F 44 °F (2005)
Min Temperature 18 °F 18 °F -2 °F (2007)
Degree Days  
Heating Degree Days 44    
Moisture  
Dew Point 10 °F    
Average Humidity 60    
Maximum Humidity 69    
Minimum Humidity 50    
Precipitation  
Precipitation 0.00 in - - ()
Sea Level Pressure  
Sea Level Pressure 30.22 in    
Wind  
Wind Speed 8 mph (West)    
Max Wind Speed 14 mph    
Max Gust Speed 26 mph    
Averages and records for this station are not official NWS values.
T = Trace of Precipitation, MM = Missing Value Source: NWS Daily Summary

Daily Weather History Graph

Daily Weather History Graph

Search for Another Location

Airport or City:

Trip Planner

Search our weather history database for the weather conditions in past years. The results will help you decide how hot, cold, wet, or windy it might be!

Date:

Astronomy

Feb. 06, 2013 Rise Set
Actual Time 7:42 AM EST 5:48 PM EST
Civil Twilight 7:12 AM EST 6:19 PM EST
Nautical Twilight 6:37 AM EST 6:53 PM EST
Astronomical Twilight 6:04 AM EST 7:27 PM EST
Moon 4:29 AM EST (2/6) 2:01 PM EST (2/6)
Length of Visible Light 11h 07m
Length of Day
10h 06m
Waning Crescent, 17% of the Moon is Illuminated
Feb 6
Waning Crescent
Feb 10
New
Feb 17
First Quarter
Feb 25
Full
Mar 4
Last Quarter

Hourly Weather History & Observations

Time (EST) Temp. Windchill Dew Point Humidity Pressure Visibility Wind Dir Wind Speed Gust Speed Precip Events Conditions
12:51 AM 21.0 °F 8.6 °F 12.0 °F 68% 29.98 in - NW 12.7 mph 26.5 mph N/A   Unknown
1:51 AM 21.0 °F 9.3 °F 10.9 °F 65% 30.01 in - NW 11.5 mph 20.7 mph N/A   Unknown
2:51 AM 19.9 °F 7.3 °F 10.0 °F 65% 30.06 in - NW 12.7 mph 19.6 mph N/A   Unknown
3:51 AM 19.0 °F 5.6 °F 8.1 °F 62% 30.08 in - NW 13.8 mph 25.3 mph N/A   Unknown
4:51 AM 19.0 °F 6.1 °F 7.0 °F 59% 30.11 in - NW 12.7 mph 20.7 mph N/A   Unknown
5:51 AM 18.0 °F 5.4 °F 7.0 °F 62% 30.14 in - NW 11.5 mph 19.6 mph N/A   Unknown
6:51 AM 19.0 °F 9.0 °F 7.0 °F 59% 30.18 in - NW 8.1 mph - N/A   Unknown
7:51 AM 18.0 °F 9.8 °F 7.0 °F 62% 30.20 in - NW 5.8 mph - N/A   Unknown
8:51 AM 19.9 °F 12.1 °F 7.0 °F 57% 30.24 in - WNW 5.8 mph - N/A   Unknown
9:51 AM 21.0 °F 14.6 °F 8.1 °F 57% 30.24 in - NW 4.6 mph - N/A   Unknown
10:51 AM 23.0 °F 14.7 °F 7.0 °F 50% 30.27 in - NW 6.9 mph - N/A   Unknown
11:51 AM 23.0 °F 18.4 °F 9.0 °F 55% 30.28 in - Variable 3.5 mph - N/A   Unknown
12:51 PM 23.0 °F 17.0 °F 7.0 °F 50% 30.29 in - Variable 4.6 mph - N/A   Unknown
1:51 PM 21.9 °F 17.2 °F 7.0 °F 53% 30.29 in - Variable 3.5 mph - N/A   Unknown
2:51 PM 23.0 °F 17.0 °F 9.0 °F 55% 30.27 in - SSW 4.6 mph - N/A   Unknown
3:51 PM 25.0 °F 19.3 °F 9.0 °F 51% 30.27 in - SW 4.6 mph - N/A   Unknown
4:51 PM 24.1 °F - 10.0 °F 55% 30.28 in - Calm Calm - N/A   Unknown
5:51 PM 23.0 °F - 10.0 °F 58% 30.31 in - Calm Calm - N/A   Unknown
6:51 PM 21.0 °F 16.2 °F 10.9 °F 65% 30.31 in - SSE 3.5 mph - N/A   Unknown
7:51 PM 21.0 °F 16.2 °F 12.0 °F 68% 30.31 in - SSE 3.5 mph - N/A   Unknown
8:51 PM 24.1 °F 19.7 °F 12.9 °F 62% 30.31 in - South 3.5 mph - N/A   Unknown
9:51 PM 24.1 °F 17.0 °F 14.0 °F 65% 30.29 in - SSE 5.8 mph - N/A   Unknown
10:51 PM 24.1 °F 19.7 °F 15.1 °F 69% 30.30 in - Variable 3.5 mph - N/A   Unknown
11:51 PM 24.1 °F 18.2 °F 15.1 °F 69% 30.28 in - SSW 4.6 mph - N/A   Unknown